sat.trackr.live / text

‹ back to catalog

STARLINK-35586

NORAD 66159 · 2025-240P

PAYLOAD ACTIVE UNKNOWN

§ Identity

Operator
Country
US
Launch date
2025-10-25
Launch site
AFWTR
Launch vehicle
Mass (kg)
RCS (m²)

Purposes: comms

External: N2YO · Heavens-Above · Gunter

§ Orbital elements

Epoch: 2026-05-25T01:06:09.659232Z

Period
93.85 min
Inclination
53.1606°
Eccentricity
0.0001110
Mean motion
15.34401290 rev/d
Perigee alt
461.9 km
Apogee alt
463.5 km
Semi-major
6,840.8 km
B*
7.8995e-4
RAAN
67.8137°
Arg perigee
0.5468°
Mean anomaly
359.5536°
Rev number
3,368

§ Raw data

STARLINK-355861 66159U 25240P   26145.04594513  .00026409  00000+0  78995-3 0  99902 66159  53.1606  67.8137 0001110   0.5468 359.5536 15.34401290 33683

JSON: /api/v1/satellites/66159 · /tle

For live sub-satellite position, see the globe view (requires WebGL).

§ Visibility from observer

Set your observer location to see the next 7 days of passes ≥ 10°. The values pass through the URL so the page stays shareable.

No JS? Fill the form by hand. The geolocation button needs JavaScript.